Terminal Aerodrome Forecast
Issued by NWS

Home | Current Version | Previous Version | Text Only | Print | Product List | Glossary On
Versions: 1 2 3 4 5 6 7 8 9 10 11 12 13 14 15 16 17 18 19 20 21 22
000
FTUS45 KABQ 111426 AAA
TAFLVS
TAF AMD
KLVS 111426Z 1114/1212 26017G27KT P6SM SCT200
      TEMPO 1114/1117 26011KT
     FM111800 28018G28KT P6SM SCT200
     FM120130 29011KT P6SM SCT200
     FM120700 21010KT P6SM SCT200=

USA.gov is the U.S. government's official web portal to all federal, state and local government web resources and services.